TimeCDT,TemperatureF,Dew PointF,Humidity,Sea Level PressureIn,VisibilityMPH,Wind Direction,Wind SpeedMPH,Gust SpeedMPH,PrecipitationIn,Events,Conditions,WindDirDegrees,DateUTC
12:15 AM,66.2,54.1,65,30.05,10.0,ESE,6.9,-,N/A,,Overcast,120,2013-07-29 05:15:00
12:35 AM,65.7,54.3,67,30.05,10.0,SE,4.6,-,N/A,,Overcast,130,2013-07-29 05:35:00
12:55 AM,65.3,53.6,66,30.05,10.0,ESE,6.9,-,N/A,,Overcast,120,2013-07-29 05:55:00
1:15 AM,64.8,53.6,67,30.05,10.0,ESE,5.8,-,N/A,,Overcast,120,2013-07-29 06:15:00
1:35 AM,64.4,54.3,70,30.05,10.0,SE,5.8,-,N/A,,Overcast,140,2013-07-29 06:35:00
1:55 AM,63.5,55.2,74,30.05,10.0,SE,5.8,-,N/A,,Overcast,130,2013-07-29 06:55:00
2:15 AM,63.7,55.6,75,30.05,10.0,SE,3.5,-,N/A,,Overcast,130,2013-07-29 07:15:00
2:55 AM,63.0,56.1,78,30.04,10.0,East,5.8,-,N/A,,Overcast,90,2013-07-29 07:55:00
3:15 AM,63.0,55.6,77,30.04,10.0,East,5.8,-,N/A,,Overcast,100,2013-07-29 08:15:00
3:35 AM,63.0,54.5,74,30.04,10.0,ESE,5.8,-,N/A,,Overcast,110,2013-07-29 08:35:00
3:55 AM,62.8,54.7,75,30.03,10.0,SE,4.6,-,N/A,,Overcast,130,2013-07-29 08:55:00
4:15 AM,62.6,54.9,76,30.03,10.0,ESE,6.9,-,N/A,,Overcast,120,2013-07-29 09:15:00
4:35 AM,62.6,54.7,75,30.03,10.0,ESE,6.9,-,N/A,,Overcast,120,2013-07-29 09:35:00
4:55 AM,62.6,54.7,75,30.03,10.0,SE,5.8,-,N/A,,Overcast,130,2013-07-29 09:55:00
5:15 AM,62.6,54.5,75,30.04,10.0,SE,4.6,-,N/A,Rain,Light Rain,140,2013-07-29 10:15:00
5:35 AM,61.2,55.8,82,30.03,7.0,SE,6.9,-,0.01,Rain,Rain,130,2013-07-29 10:35:00
5:55 AM,60.1,55.8,86,30.03,10.0,ESE,8.1,-,0.03,Rain,Rain,120,2013-07-29 10:55:00
6:15 AM,59.9,56.1,87,30.03,7.0,ESE,9.2,-,0.01,Rain,Rain,120,2013-07-29 11:15:00
6:35 AM,59.4,56.3,90,30.03,10.0,ESE,10.4,-,0.03,Rain,Rain,120,2013-07-29 11:35:00
6:55 AM,59.0,56.8,93,30.03,5.0,ESE,9.2,-,0.06,Rain,Rain,120,2013-07-29 11:55:00
7:15 AM,59.2,57.7,95,30.03,7.0,ESE,8.1,-,0.01,Rain,Rain,120,2013-07-29 12:15:00
7:35 AM,59.0,57.7,96,30.03,7.0,ESE,8.1,-,0.01,Rain,Rain,110,2013-07-29 12:35:00
7:55 AM,59.0,58.1,97,30.03,7.0,ESE,8.1,-,0.02,Rain,Light Rain,120,2013-07-29 12:55:00
8:15 AM,59.0,58.1,97,30.04,7.0,SE,6.9,-,N/A,Rain,Rain,130,2013-07-29 13:15:00
8:35 AM,59.2,58.3,97,30.04,5.0,ESE,8.1,-,N/A,,Drizzle,120,2013-07-29 13:35:00
8:55 AM,59.4,58.6,97,30.04,2.0,ESE,9.2,-,N/A,Rain,Light Rain,120,2013-07-29 13:55:00
9:15 AM,59.7,59.0,97,30.03,2.0,ESE,9.2,-,N/A,Rain,Light Rain,120,2013-07-29 14:15:00
9:35 AM,59.5,59.0,98,30.03,2.0,ESE,11.5,-,N/A,Rain,Light Rain,120,2013-07-29 14:35:00
9:55 AM,59.4,59.0,99,30.03,1.5,ESE,10.4,-,N/A,Rain,Light Rain,120,2013-07-29 14:55:00
10:15 AM,59.5,59.0,98,30.03,2.5,SE,11.5,-,N/A,,Overcast,130,2013-07-29 15:15:00
10:35 AM,59.9,59.4,98,30.03,3.0,SE,11.5,17.3,N/A,,Overcast,130,2013-07-29 15:35:00
10:55 AM,60.3,59.9,99,30.02,2.0,SE,9.2,-,N/A,,Overcast,140,2013-07-29 15:55:00
11:15 AM,60.8,60.1,97,30.03,2.5,SE,10.4,-,N/A,,Overcast,130,2013-07-29 16:15:00
11:35 AM,61.0,60.4,98,30.03,4.0,SE,9.2,-,N/A,,Overcast,130,2013-07-29 16:35:00
11:55 AM,61.2,60.8,99,30.03,7.0,SE,8.1,-,N/A,,Overcast,130,2013-07-29 16:55:00
12:15 PM,61.9,61.3,98,30.03,10.0,SE,8.1,-,N/A,,Overcast,140,2013-07-29 17:15:00
12:35 PM,62.6,61.9,97,30.03,7.0,SE,9.2,-,N/A,,Overcast,140,2013-07-29 17:35:00
12:55 PM,62.2,61.7,98,30.02,4.0,SE,9.2,-,N/A,,Overcast,140,2013-07-29 17:55:00
1:15 PM,63.0,62.6,99,30.02,5.0,SSE,8.1,-,N/A,,Overcast,150,2013-07-29 18:15:00
1:35 PM,63.5,62.6,97,30.02,7.0,SSE,10.4,-,N/A,,Overcast,150,2013-07-29 18:35:00
1:55 PM,63.3,62.6,97,30.02,7.0,SE,8.1,-,N/A,,Overcast,140,2013-07-29 18:55:00
2:15 PM,63.5,62.6,97,30.02,7.0,SE,9.2,-,N/A,,Overcast,140,2013-07-29 19:15:00
2:35 PM,63.5,62.6,97,30.02,7.0,SE,8.1,-,N/A,,Overcast,140,2013-07-29 19:35:00
2:55 PM,63.7,62.8,97,30.03,7.0,SSE,9.2,-,N/A,,Overcast,150,2013-07-29 19:55:00
3:15 PM,63.7,62.6,96,30.03,7.0,SE,6.9,-,N/A,,Overcast,130,2013-07-29 20:15:00
3:35 PM,63.5,62.4,96,30.04,7.0,SE,9.2,-,N/A,,Overcast,140,2013-07-29 20:35:00
3:55 PM,63.5,62.1,95,30.04,4.0,SE,10.4,-,N/A,,Overcast,140,2013-07-29 20:55:00
4:15 PM,63.9,61.2,91,30.03,5.0,SE,8.1,-,N/A,,Overcast,140,2013-07-29 21:15:00
4:35 PM,63.9,60.8,90,30.03,7.0,SSE,8.1,-,N/A,,Overcast,150,2013-07-29 21:35:00
4:55 PM,64.0,61.0,90,30.02,5.0,SE,8.1,-,N/A,,Overcast,140,2013-07-29 21:55:00
5:15 PM,64.6,61.2,89,30.02,7.0,SSE,5.8,-,N/A,,Overcast,150,2013-07-29 22:15:00
5:35 PM,64.6,61.2,89,30.02,7.0,SE,4.6,-,N/A,,Overcast,140,2013-07-29 22:35:00
5:55 PM,64.8,61.3,89,30.01,7.0,SSE,6.9,-,N/A,,Overcast,160,2013-07-29 22:55:00
6:15 PM,64.4,61.7,91,30.01,4.0,SE,9.2,-,N/A,,Overcast,140,2013-07-29 23:15:00
6:35 PM,63.5,61.2,92,30.02,3.0,ESE,9.2,-,N/A,,Overcast,120,2013-07-29 23:35:00
6:55 PM,63.3,61.3,93,30.02,3.0,ESE,6.9,-,N/A,,Overcast,110,2013-07-29 23:55:00
7:15 PM,63.5,61.0,91,30.01,7.0,ESE,6.9,-,N/A,,Overcast,120,2013-07-30 00:15:00
7:35 PM,63.5,60.6,90,30.02,5.0,East,5.8,-,N/A,,Overcast,100,2013-07-30 00:35:00
7:55 PM,63.1,61.2,93,30.02,1.0,ESE,5.8,-,N/A,,Overcast,110,2013-07-30 00:55:00
8:15 PM,63.3,61.9,95,30.03,1.0,ESE,5.8,-,N/A,,Overcast,120,2013-07-30 01:15:00
8:35 PM,63.0,61.7,96,30.04,1.2,East,4.6,-,N/A,,Overcast,100,2013-07-30 01:35:00
8:55 PM,63.1,62.1,96,30.05,2.0,ESE,3.5,-,N/A,,Overcast,110,2013-07-30 01:55:00
9:15 PM,63.1,62.2,97,30.06,2.0,SE,4.6,-,N/A,,Overcast,130,2013-07-30 02:15:00
9:35 PM,63.5,62.6,97,30.07,2.5,SE,3.5,-,N/A,,Overcast,140,2013-07-30 02:35:00
9:55 PM,63.5,62.6,97,30.07,2.5,Calm,Calm,-,N/A,,Overcast,0,2013-07-30 02:55:00
10:15 PM,63.5,62.6,97,30.08,2.5,Calm,Calm,-,N/A,,Overcast,0,2013-07-30 03:15:00
10:35 PM,63.5,62.8,97,30.07,3.0,Calm,Calm,-,N/A,,Overcast,0,2013-07-30 03:35:00
10:55 PM,63.7,63.0,97,30.07,2.5,Calm,Calm,-,N/A,,Overcast,0,2013-07-30 03:55:00
11:15 PM,63.5,62.8,97,30.06,2.5,Calm,Calm,-,N/A,,Overcast,0,2013-07-30 04:15:00
11:35 PM,63.5,63.0,98,30.06,3.0,Calm,Calm,-,N/A,,Overcast,0,2013-07-30 04:35:00
11:55 PM,63.9,63.1,97,30.06,4.0,Calm,Calm,-,N/A,,Overcast,0,2013-07-30 04:55:00